Location: *
(35.2348°S, 91.3916°E)
Time: 19:08:20
(UTC+00:00)

Cosmos 1689 Rocket - Pass Details

Date: 23 October 2019
Orbit: 374 x 390 km, 97.5° (Epoch: 20 November)

Event Time Altitude Azimuth Distance (km) Brightness Sun altitude
Rises 22:14:17 0° 171° (S) 2,325 6.5 -10.0°
Reaches altitude 10° 22:16:17 10° 173° (S) 1,456 5.4 -9.6°
Maximum altitude 22:19:22 70° 256° (WSW) 424 2.1 -9.0°
Drops below altitude 10° 22:22:24 10° 341° (NNW) 1,422 4.6 -8.4°
Sets 22:24:20 0° 343° (NNW) 2,265 5.6 -8.0°
Enters shadow 22:24:23 - 343° (NNW) 2,286 5.6 -8.0°
